CZ-6A DEB

Satellite information

Favourite Embed

Satellite Type and Status

DEBRISIN ORBIT

Key statistics

Satellite CZ-6A DEB at a glance.

Uptime

395

Days in orbit

Revolutions

≈ 14.4

Per day

Orbit

LEO

Low Earth Orbit

Inclination

88.9

Latest

Satellite identification and parameters

Extended collection of information and parameters for CZ-6A DEB.

Object identification

Identified? True

Debris? True

Object name: CZ-6A DEB

International designator: 2024-140AEC

Object number (NORAD): 64638

Object ID (CCSDS): 64638

Country: PEOPLES REPUBLIC OF CHINA (PRC)

Current information (Y/N): Y

RCS size: SMALL

Orbital parameters

Period: 99.86 minutes

Inclination: 88.8633 deg

SMA: 7129.965 km

Apoapsis: 785.867 km

Periapsis: 717.792 km

RAAN: 299.539 deg

Eccentricy: 0.00477388

Argument of periapsis: 245.8141 deg

Mean anomaly: 113.8067 deg

Mean motion: 14.42021406 rev/day

Mean motion (dot): 0.00008858 rev/day2

B* drag term: 0.0026576465 1/REarth

Two-line elements (TLE)

Creation date: Sept. 1, 2025, 7:24 p.m.

Reference frame: TEME

Reference center: EARTH

Epoch: Sept. 1, 2025, 9:53 a.m. UTC

TLE line 0: 0 CZ-6A DEB

TLE line 1: 1 64638U 24140AEC 25244.41245224 .00008858 00000-0 26576-2 0 9996

TLE line 2: 2 64638 88.8633 299.5390 0047739 245.8141 113.8067 14.42021406 50237

Live tracking on map

Real-time ground track for satellite CZ-6A DEB.

In-orbit conjunctions

A list of the most updated potential collisions computed for object CZ-6A DEB.

Target Orbit TCA Probability of collision Miss distance Type
RUBIN 9.1/RUBIN 9.2/PSLV SSO 2025-08-05 22:09:32 0.001007853 131.0 (m) PAYLOAD
COSMOS 836 LEO 2025-07-22 22:20:46 0.0003730222 121.0 (m) PAYLOAD

Associated space launch

18 Low Earth Orbit communication satellites with Ku, Q and V band payloads for the G60 constellation operated by Shanghai Spacecom Satellite Technology (SSST) with funding backed by the Shanghai local government. Initial constellation will consist of 1296 satellites by 2027 with long term plans to expand it to 12000 satellites.

CZ-6A DEB was lifted into orbit during the mission ‘Long March 6A | G60 Polar Group 01’, on board a Long March 6A space rocket.

The launch took place on Aug. 6, 2024, 6:42 a.m. from Launch Complex 9A.

For more information about the launch, click the button.

Launch to space Long March 6A | G60 Polar Group 01
Long March 6A | G60 Polar Group 01

Agency: N/A

Status: Launch Successful

Launch date: Aug. 6, 2024, 6:42 a.m. UTC

Rocket: Long March 6A

Launch pad: Launch Complex 9A

Location: Taiyuan Satellite Launch Center, People's Republic of China

...

Latest news about this satellite

News about space launch
Brightness of first Chinese broadband constellation satellites alarms astronomers

The first satellites of a Chinese broadband constellation are significantly brighter than those of Western systems, posing a new challenge for astronomers.

News about space launch
Chinese rocket stage breaks up into cloud of more than 700 pieces of space debris

HELSINKI — A Chinese Long March 6A rocket’s upper stage has fragmented into a cloud of over 700 pieces of space debris, adding to concerns about long-term orbital safety. China […]

News about space launch
China's Thousand Sails Megaconstellation Kicks Off with Dangerous Debris Field

China's Thousand Sails Megaconstellation Kicks Off with Dangerous Debris Field


Newsletter sign-up

Weekly statistics, charts and insights to help you stay on top of the space industry.